This is the latest recevied weather packets stored in our database for station/object N0NAI-13. If no packets are shown the sender has not sent any weather packets the latest 10 day(s).
| Time | Temp. | Humidity | Pressure | Rain* | Wind** | Luminosity | Snow |
|---|---|---|---|---|---|---|---|
| 1777866328 | 10° C | 63% | 1007.4 hPa | 0 mm | - | - | - |
| 1777865724 | 10° C | 63% | 1007.5 hPa | 0 mm | - | - | - |
| 1777865115 | 10.56° C | 61% | 1007.6 hPa | 0 mm | - | - | - |
| 1777864518 | 11.11° C | 60% | 1007.8 hPa | 0 mm | - | - | - |
| 1777863921 | 11.11° C | 58% | 1007.8 hPa | 0 mm | - | - | - |
| 1777863324 | 11.67° C | 56% | 1007.6 hPa | 0 mm | - | - | - |
| 1777862727 | 12.22° C | 55% | 1007.6 hPa | 0 mm | - | - | - |
| 1777862130 | 12.78° C | 54% | 1007.6 hPa | 0 mm | - | - | - |
| 1777861532 | 13.33° C | 51% | 1007.6 hPa | 0 mm | - | - | - |
| 1777860918 | 13.33° C | 49% | 1007.4 hPa | 0 mm | - | - | - |
| 1777860320 | 13.89° C | 51% | 1007.3 hPa | 0 mm | - | - | - |
| 1777859723 | 13.89° C | 49% | 1007.3 hPa | 0 mm | - | - | - |
| 1777859126 | 15° C | 47% | 1007.3 hPa | 0 mm | - | - | - |
| 1777858529 | 15.56° C | 43% | 1007.3 hPa | 0 mm | - | - | - |
| 1777857932 | 16.67° C | 41% | 1007.2 hPa | 0 mm | - | - | - |
| 1777857317 | 17.78° C | 38% | 1007.3 hPa | 0 mm | - | - | - |
| 1777856719 | 18.89° C | 37% | 1007.2 hPa | 0 mm | - | - | - |
| 1777856122 | 20° C | 34% | 1007.2 hPa | 0 mm | - | - | - |
| 1777855525 | 21.11° C | 32% | 1007.2 hPa | 0 mm | - | - | - |
| 1777854928 | 22.22° C | 31% | 1007.2 hPa | 0 mm | - | - | - |
| 1777854324 | 23.33° C | 29% | 1007.2 hPa | 0 mm | - | - | - |
| 1777853721 | 23.33° C | 28% | 1007.2 hPa | 0 mm | - | - | - |
| 1777853118 | 22.78° C | 28% | 1007.2 hPa | 0 mm | - | - | - |
| 1777852521 | 23.89° C | 26% | 1007.3 hPa | 0 mm | - | - | - |
| 1777851924 | 23.89° C | 26% | 1007.3 hPa | 0 mm | - | - | - |
* Rain latest hour (hover to see other rain measurements)
** Current wind speed in m/s (hover to see current wind gust speed)